Back to catalog

XIGUANG 1-02

AliveScienceSSO
NORAD 64092·PAYLOAD·🇨🇳 China
This satellite name has not been confirmed by official sources yet.

Launched May 21, 2025 from Jiuquan Satellite Launch Center

Loading…

Next Passes (next 24 hours)

TLE

FreshSource: Space-Track

Epoch: Sep 14, 2026, 15:46 UTC

1 64092U 25108F   26257.65763611  .00015319  00000-0  52026-3 0  9991
2 64092  97.4627 335.6771 0011047  51.8318 308.3916 15.30524919 73176

Track XIGUANG 1-02 in real time with AllMySat

Download on the App Store